Galveston, TX

2:24 AM CDT on October 01, 2016 (GMT -0500)
Scholes International At Galveston

Weather History for KGLS - November, 2013

Change the Weather History Date:

Friday, November 1, 2013

  Actual Average Record
Temperature  
Mean Temperature 69 °F 70 °F  
Max Temperature 77 °F 76 °F 84 °F (1998)
Min Temperature 61 °F 63 °F 42 °F (1991)
Degree Days  
Heating Degree Days 0 1  
Month to date heating degree days 0 1  
Since 1 July heating degree days 0 10  
Cooling Degree Days 4 6  
Month to date cooling degree days 4 6  
Year to date cooling degree days 3249 3198  
Growing Degree Days 18 (Base 50)    
Moisture  
Dew Point 65 °F    
Average Humidity 80    
Maximum Humidity 100    
Minimum Humidity 60    
Precipitation  
Precipitation 0.02 in 0.11 in 3.48 in (1992)
Month to date precipitation 0.02 0.11  
Year to date precipitation 36.16 42.84  
Snow  
Snow 0.00 in - 0.00 in (2002)
Month to date snowfall 0.0  
Since 1 July snowfall 0.0  
Since 1 September snowfall 0.0  
Snow Depth 0.00 in    
Sea Level Pressure  
Sea Level Pressure 29.90 in    
Wind  
Wind Speed 6 mph (ESE)    
Max Wind Speed 15 mph    
Max Gust Speed 20 mph    
Visibility 9 miles    
Events Fog , Thunderstorm    
T = Trace of Precipitation, MM = Missing Value Source: NWS Daily Summary

Daily Weather History Graph

Daily Weather History Graph

Search for Another Location

Airport or City:

Trip Planner

Search our weather history database for the weather conditions in past years. The results will help you decide how hot, cold, wet, or windy it might be!

Date:

Astronomy

Nov. 01, 2013 Rise Set
Actual Time 7:32 AM CDT 6:33 PM CDT
Civil Twilight 7:07 AM CDT 6:57 PM CDT
Nautical Twilight 6:39 AM CDT 7:25 PM CDT
Astronomical Twilight 6:12 AM CDT 7:53 PM CDT
Moon 5:33 AM CDT 5:20 PM CDT
Length of Visible Light 11h 49m
Length of Day
11h 00m
Waning Crescent, 4% of the Moon is Illuminated
Nov 1
Waning Crescent
Nov 3
New
Nov 9
First Quarter
Nov 17
Full
Nov 25
Last Quarter

Hourly Weather History & Observations

Time (CDT) Temp. Dew Point Humidity Pressure Visibility Wind Dir Wind Speed Gust Speed Precip Events Conditions
12:52 AM 64.9 °F 64.9 °F 100% 29.90 in 10.0 mi Calm Calm - N/A   Clear
1:52 AM 64.0 °F 64.0 °F 100% 29.91 in 0.5 mi Calm Calm - N/A Fog Fog
2:52 AM 64.0 °F 64.0 °F 100% 29.88 in 0.5 mi Calm Calm - N/A Fog Fog
3:15 AM 64.4 °F 64.4 °F 100% 29.88 in 2.5 mi NW 3.5 mph - 0.01 in   Clear
3:22 AM 64.4 °F 64.4 °F 100% 29.88 in 10.0 mi NW 3.5 mph - 0.01 in   Clear
3:52 AM 62.1 °F 62.1 °F 100% 29.88 in 9.0 mi Calm Calm - 0.01 in   Clear
4:52 AM 62.1 °F 62.1 °F 100% 29.87 in 10.0 mi ENE 3.5 mph - N/A   Clear
5:52 AM 62.1 °F 62.1 °F 100% 29.88 in 10.0 mi NE 4.6 mph - N/A   Clear
6:52 AM 63.0 °F 60.1 °F 90% 29.87 in 10.0 mi ENE 5.8 mph - N/A   Clear
7:52 AM 63.0 °F 62.1 °F 97% 29.89 in 10.0 mi NNE 6.9 mph - N/A   Clear
8:52 AM 66.0 °F 63.0 °F 90% 29.92 in 10.0 mi NE 3.5 mph - N/A   Clear
9:52 AM 71.1 °F 62.1 °F 73% 29.94 in 10.0 mi East 8.1 mph - N/A   Clear
10:52 AM 73.0 °F 61.0 °F 66% 29.94 in 10.0 mi East 8.1 mph - N/A   Clear
11:52 AM 75.0 °F 60.1 °F 60% 29.94 in 10.0 mi East 9.2 mph - N/A   Clear
12:52 PM 73.9 °F 66.0 °F 76% 29.92 in 10.0 mi ESE 10.4 mph - N/A   Clear
1:52 PM 75.9 °F 63.0 °F 64% 29.90 in 10.0 mi SE 8.1 mph - N/A   Clear
2:52 PM 75.9 °F 63.0 °F 64% 29.87 in 10.0 mi SSE 10.4 mph - N/A   Clear
3:52 PM 75.9 °F 64.9 °F 69% 29.85 in 10.0 mi SSE 8.1 mph - N/A   Clear
4:52 PM 75.9 °F 64.0 °F 67% 29.85 in 10.0 mi South 6.9 mph - N/A   Clear
5:52 PM 75.0 °F 64.9 °F 71% 29.86 in 10.0 mi South 6.9 mph - N/A   Clear
6:52 PM 72.0 °F 66.9 °F 84% 29.86 in 10.0 mi South 5.8 mph - N/A   Clear
7:52 PM 72.0 °F 69.1 °F 91% 29.89 in 10.0 mi South 4.6 mph - N/A   Mostly Cloudy
8:52 PM 72.0 °F 69.1 °F 91% 29.92 in 10.0 mi Calm Calm - N/A   Clear
9:52 PM 72.0 °F 70.0 °F 93% 29.93 in 10.0 mi Calm Calm - N/A   Clear
10:52 PM 72.0 °F 71.1 °F 97% 29.94 in 10.0 mi South 5.8 mph - N/A   Clear
11:24 PM 71.6 °F 69.8 °F 94% 29.94 in 10.0 mi NW 6.9 mph - N/A Thunderstorm Mostly Cloudy
11:39 PM 71.6 °F 69.8 °F 94% 29.94 in 10.0 mi West 6.9 mph - N/A   Mostly Cloudy
11:52 PM 73.0 °F 70.0 °F 90% 29.95 in 10.0 mi West 8.1 mph - N/A   Mostly Cloudy